Regional Weather Roundup
Issued by NWS Grand Forks, ND

Home | Current Version | Previous Version | Text Only | Print | Product List | Glossary Off
Versions: 1 2 3 4 5 6 7 8 9 10 11 12 13 14 15 16 17 18 19 20 21 22 23 24 25 26 27 28 29 30 31 32 33 34 35 36 37 38 39 40 41 42 43 44 45 46 47 48 49 50

000
ASUS43 KFGF 180710
RWRFGF
PRAIRIE TO PINES  WEATHER ROUNDUP
NATIONAL WEATHER SERVICE EASTERN NORTH DAKOTA/GRAND FORKS ND
100 AM CST MON DEC 18 2017

 **SATELLITE DATA USED TO AUGMENT SKY COVER AT AUTOMATED STATIONS**
 *****  WEATHER ACROSS EASTERN NORTH DAKOTA  *****

CITY           SKY/WX    TMP DP  RH WIND       PRES   REMARKS
GRAND FORKS    FAIR      28  25  88 S14       29.67F WCI  17
GRAND FRKS AFB FAIR      30  24  79 SW10      29.66F WCI  21
GRAND FRKS NWS   N/A     28 N/A N/A S12         N/A  WCI  18
DEVILS LAKE    FAIR      31  25  78 SW14      29.64F WCI  21
FARGO          CLOUDY    31  29  92 S13       29.75F WCI  21
WAHPETON ARPT  CLOUDY    30  28  93 S10       29.79F WCI  21
$$

 ***** WEATHER ACROSS CENTRAL AND WESTERN NORTH DAKOTA  *****

CITY           SKY/WX    TMP DP  RH WIND       PRES   REMARKS
BISMARCK       FAIR      33  24  69 W8        29.70F
MINOT          FAIR      34  23  64 SW13      29.61F WCI  25
JAMESTOWN      FAIR      34  28  79 SW9       29.68F
MINOT AFB      MOCLDY    31  23  70 W14G20    29.59F WCI  21
GARRISON         N/A     29  23  78 W8        29.64F WCI  21
WILLISTON      CLOUDY    35  23  61 SW10      29.63F
DICKINSON      MOCLDY    32  19  58 W15       29.67F WCI  22
HETTINGER      FAIR      30  19  63 W14       29.74F WCI  19
$$

 *****  OTHER AIRPORT OBSERVATIONS IN OUR AREA  *****

CITY           SKY/WX    TMP DP  RH WIND       PRES   REMARKS
WALHALLA       FAIR      34  27  75 SW9G16    29.58F
GRAFTON AIRPOR NOT AVBL
VALLEY CITY AR NOT AVBL
CANDO          FAIR      27  27 100 SW10      29.62F WCI  17
CAVALIER APRT  FAIR      34  25  69 SW9       29.61F
GWINNER          N/A     32  32 100 SW13      29.75F WCI  22
SHEYENNE NWR     N/A     31  31 100 SW7       29.95S WCI  24
ROLLA          PTSUNNY   28  25  86 SW16      29.55F WCI  17
 ***** THE ABOVE OBSERVATIONS ARE NON NWS ARE NOT QUALITY
       CONTROLLED AND MAY MIS-REPORT RAIN FOR SNOW...
$$

  *****  WEATHER ACROSS NORTHERN MINNESOTA  *****

CITY           SKY/WX    TMP DP  RH WIND       PRES   REMARKS
FLAG ISLAND    CLOUDY    21  19  93 S9        29.63F WCI  11
WARROAD        CLOUDY    27  25  93 S12G21    29.65F WCI  16
ROSEAU         FAIR      28  25  86 S17       29.65F WCI  16
HALLOCK        MOCLDY    28  25  86 S14       29.64F WCI  17
THF RVR FALLS  CLOUDY    29  28  96 S14       29.69F WCI  18
BAUDETTE       CLOUDY    24  21  88 S14G23    29.69F WCI  12
WASKISH        CLOUDY    27  25  93 S8        29.73F WCI  18
CROOKSTON      CLOUDY    30  30 100 S15       29.71F FOG     WCI  19
STEPHEN NDAWN    N/A     28  25  86 S16         N/A  WCI  17
GREENBUSH NDAW   N/A     30  27  86 S18         N/A  WCI  18
$$
  *****  WEATHER ACROSS CENTRAL AND WEST MINNESOTA  *****

CITY           SKY/WX    TMP DP  RH WIND       PRES   REMARKS
FOSSTON        CLOUDY    27  27 100 S10       29.73F FOG     WCI  17
BEMIDJI        CLOUDY    26  25  96 S7        29.75F WCI  18
PARK RAPIDS    CLOUDY    26  24  92 S7        29.77F FOG     WCI  18
ELBOW LAKE     FAIR      28  27  97 S10       29.81F FOG     WCI  18
WADENA         CLOUDY    25  25 100 S7        29.79F FOG     WCI  17
DETROIT LAKES  FAIR      28  28 100 S8        29.77F FOG     WCI  20
MOORHEAD       CLOUDY    28  27  93 S10       29.77F WCI  19
FERGUS FALLS   CLOUDY    28  28 100 S9        29.82F FOG     WCI  20
MORRIS MN      CLOUDY    28  28 100 S7        29.81F FOG     WCI  21
STAPLES        CLOUDY    23  23 100 S6        29.80F FOG     WCI  16
$$
  *****  WEATHER ELSEWHERE ACROSS MINNESOTA  *****

CITY           SKY/WX    TMP DP  RH WIND       PRES   REMARKS
DULUTH         CLOUDY    23  23 100 SW8       29.83F FOG     WCI  14
INTRNTL FALLS  CLOUDY    25  22  88 S6        29.74F FOG     WCI  18
ELY            CLOUDY    23  21  93 SW6       29.79F WCI  16
CLOQUET        CLOUDY    25  21  86 S3        29.84F FOG
WHEATON        MOCLDY    34  30  86 S8        29.82F
BRAINERD       CLOUDY    25  20  81 S8        29.83F HAZE    WCI  16
HIBBING        CLOUDY    25  24  96 S6        29.81F WCI  18
ALEXANDRIA     CLOUDY    28  26  92 S8        29.81F WCI  20
SAINT CLOUD    CLOUDY    24  21  88 S6        29.87F WCI  17
MINNEAPOLIS    CLOUDY    26  26 100 SW5       29.92F FOG     WCI  20
$$

  *****  WEATHER ACROSS SOUTH DAKOTA  *****

CITY           SKY/WX    TMP DP  RH WIND       PRES   REMARKS
SIOUX FALLS    FAIR      31  27  85 S10       29.87F WCI  22
BROOKINGS      CLOUDY    32  27  81 S9        29.84F WCI  24
WATERTOWN      CLOUDY    32  29  88 S10       29.80F WCI  24
HURON          FAIR      31  27  85 MISG      29.82F
SISSETON         N/A     38  31  76 SW12      29.78F
ABERDEEN       MOCLDY    32  30  92 S13       29.78F WCI  22
MITCHELL       FAIR      33  26  75 S13       29.85F WCI  24
PIERRE         FAIR      27  26  96 W8        29.80F WCI  19
MOBRIDGE       FAIR      33  26  75 CALM      29.73F
RAPID CITY     FAIR      28  17  63 NW7       29.83F WCI  21
$$

  *****  SOME WEATHER IN NEARBY STATES *****

CITY           SKY/WX    TMP DP  RH WIND       PRES   REMARKS
GLASGOW MT     FAIR      30  21  69 W6        29.64F WCI  24
GREAT FALLS MT FAIR      39  23  52 SW29G41   29.69F
CHEYENNE WY    FAIR      25  22  88 CALM      29.94R
SCOTTSBLUFF NE FAIR      21  12  68 S3        29.95S
OMAHA NE       FAIR      25  20  81 SE5       29.98F WCI  19
DES MOINES IA  FAIR      28  25  88 SW5       29.96F FOG     WCI  23
DAVENPORT IA   FOG       38  38 100 SW5       29.96F VSB 1/4
CHICAGO IL     CLOUDY    41  36  82 S7        29.94F
EAU CLAIRE WI  CLOUDY    27  25  92 SW7       29.90F FOG     WCI  19
LA CROSSE WI   CLOUDY    31  28  89 W3        29.94F FOG
$$

  *****  SOME NATIONAL WEATHER *****

CITY           SKY/WX    TMP DP  RH WIND       PRES   REMARKS
LA GUARDIA NY  CLOUDY    35  23  61 E7        30.19S
RALEIGH NC     MOCLDY    45  39  79 SW6       30.16F
ATLANTA GA     CLOUDY    47  46  97 CALM      30.17R FOG
NEW ORLEANS LA LGT RAIN  65  65 100 W6        30.13S
OKLAHOMA CITY  FOG       38  38 100 S5        30.11R VSB 1/8
ALBUQUERQUE NM FAIR      37  30  75 NE3       30.11F
SALT LAKE CITY FAIR      29  23  78 SE3       30.29R
LOS ANGELES CA FAIR      61  20  20 CALM      30.07R
BOISE ID       CLOUDY    35  25  66 S5        30.23S
SEATTLE WA     CLOUDY    50  43  77 S18G24    29.96F
$$

*** WEATHER ACROSS MANITOBA...SASKATCHEWAN AND ONTARIO ***
                ***ONTARIO***

CITY           SKY/WX    TMP DP  RH WIND       PRES   REMARKS
GERALDTON      FLURRIES  25  23  93 SW12      29.73F WCI  14
THUNDER BAY    CLOUDY    25  21  86 W5        29.82F WCI  19
SIOUX LOOKOUT  CLOUDY    23  21  93 S9        29.65F WCI  13
TORONTO        CLOUDY    19  14  79 N5        30.03F WCI  13
BIG TROUT LK   MOCLDY    18  18 100 S8        29.44F WCI   7
PICKLE LAKE    NOT AVBL
DRYDEN         CLOUDY    21  21 100 S13G18    29.65S WCI   9
KENORA         CLOUDY    21  19  93 S13G18    29.60F WCI   9
$$
                *** MANITOBA***

CITY           SKY/WX    TMP DP  RH WIND       PRES   REMARKS
BRANDON        CLOUDY    30  23  74 W14       29.51F WCI  20
DAUPHIN        CLEAR     32  25  74 SW13G20   29.41F WCI  22
ISLAND LAKE    NOT AVBL
PILOT MOUND      N/A     27  23  86 SW15        N/A  WCI  15
THE PAS        CLOUDY    30  25  80 W16G23    29.18F WCI  19
THOMPSON       FLURRIES  25  23  93 S9        29.06F WCI  15
WINNIPEG       MOCLDY    27  23  86 S15       29.54F WCI  15
LYNN LAKE      FLURRIES  27  27 100 W10G20    28.99F WCI  17
CHURCHILL      LGT SNOW   5   3  92 E12       29.25F WCI -11
GILLAM         CLOUDY    18  16  93 SE6       29.14F WCI   9
$$
                ***SASKATCHEWAN***

CITY           SKY/WX    TMP DP  RH WIND       PRES   REMARKS
ESTEVAN        CLOUDY    30  27  86 SW12      29.55F WCI  21
KINDERSLEY     CLOUDY    27  19  74 W10       29.52F WCI  17
LLOYDMINSTER   CLOUDY    27  19  74 W14       29.44S WCI  15
PRINCE ALBERT  CLEAR     27  21  80 W9        29.37S WCI  17
REGINA         PTCLDY    28  25  86 W10       29.51F WCI  19
YORKTON        PTCLDY    28  25  86 SW15      29.43R WCI  17
N. BATTLEFORD  CLEAR     27  18  69 W9        29.48R WCI  17
LA RONGE       FLURRIES  32  27  80 W16G25    29.24R WCI  21
SASKATOON      PTCLDY    21  19  93 SW12      29.47S WCI   9
SWIFT CURRENT  PTCLDY    32  23  69 W13       29.54F WCI  22
$$
NOTE: THESE ARE AUTOMATED STATIONS WITH LIMITED QUALITY CONTROL
      "FAIR" INDICATES FEW OR NO CLOUDS BELOW 12,000 FEET WITH NO
      SIGNIFICANT WEATHER AND/OR OBSTRUCTIONS TO VISIBILITY.
      SKY/WX - SKY CONDITION AND SIGNIFICANT WEATHER.
      TMP - AIR TEMPERATURE.    DP   - DEWPOINT TEMPERATURE.
      RH  - RELATIVE HUMIDITY.  PRES - PRESSURE.
      HX  - HEAT INDEX.         WCI  - WIND CHILL INDEX.
$




USA.gov is the U.S. government's official web portal to all federal, state and local government web resources and services.